{"data":{"norad_id":68274,"intl_designator":"2026-055N","name":"STARLINK-37129","alt_names":[],"object_type":"PAYLOAD","status":"ACTIVE","operator":null,"country":"US","launch_date":"2026-03-19","launch_site_code":"AFETR","launch_vehicle":null,"mission":null,"orbit_class":"UNKNOWN","rcs_meters":null,"size_class":null,"mass_kg":null,"dimensions":null,"purposes":["comms"],"wikipedia_slug":null,"has_3d_model":false,"image_url":null,"decayed_at":null,"tle_current":{"epoch":"2026-05-24T18:53:39.162048Z","epoch_age_seconds":87277,"freshness":"FRESH","line1":"1 68274U 26055N   26144.78725882  .00020908  00000+0  62819-3 0  9996","line2":"2 68274  53.1594 324.9595 0001164  97.7581 262.3554 15.34400620 11590","mean_motion":15.3440062,"eccentricity":0.0001164,"inclination_deg":53.1594,"raan_deg":324.9595,"arg_perigee_deg":97.7581,"mean_anomaly_deg":262.3554,"bstar":0.00062819,"rev_number":1159,"period_min":93.847720160593,"perigee_km":461.9051238476,"apogee_km":463.49767102653,"semimajor_km":6840.8383974371,"source":"CELESTRAK","updated_at":"2026-05-25T13:38:21.892515Z"}}}